Overview Statistics Trail Chart Weather Telemetry Raw packets
 

This is the latest recevied weather packets stored in our database for station/object N4UUJ-1. If no packets are shown the sender has not sent any weather packets the latest 10 day(s).

<< 6 7 8 9 10 11 12 >>
Time Temp. Humidity Pressure Rain* Wind** Luminosity Snow
1788272595 28.33° C 75% 1025 hPa 0 mm - - -
1788270794 26.67° C 75% 1024.7 hPa 0 mm - - -
1788268993 22.22° C 75% 1024.6 hPa 0 mm - - -
1788267192 19.44° C 75% 1024.5 hPa 0 mm - - -
1788265391 17.78° C 75% 1023.8 hPa 0 mm - - -
1788263590 17.78° C 75% 1023.8 hPa 0 mm - - -
1788261789 17.78° C 75% 1023.5 hPa 0 mm - - -
1788259988 17.78° C 75% 1023.4 hPa 0 mm - - -
1788258187 17.78° C 75% 1023.2 hPa 0 mm - - -
1788256386 18.33° C 75% 1023 hPa 0 mm - - -
1788254585 18.33° C 75% 1023.1 hPa 0 mm - - -
1788252784 18.33° C 75% 1022.9 hPa 0 mm - - -
1788250983 18.33° C 75% 1022.7 hPa 0 mm - - -
1788249182 18.33° C 75% 1022.8 hPa 0 mm - - -
1788247381 18.33° C 75% 1022.7 hPa 0 mm - - -
1788245580 18.89° C 75% 1023 hPa 0 mm - - -
1788243779 19.44° C 75% 1023.3 hPa 0 mm - - -
1788241978 19.44° C 75% 1023.2 hPa 0 mm - - -
1788240177 19.44° C 75% 1023.3 hPa 0 mm - - -
1788238376 20° C 75% 1023.2 hPa 0 mm - - -
1788236575 20.56° C 75% 1023.1 hPa 0 mm - - -
1788234783 20.56° C 75% 1023.3 hPa 0 mm - - -
1788232973 20.56° C 75% 1023.3 hPa 0 mm - - -
1788231172 21.11° C 75% 1023.3 hPa 0 mm - - -
1788229371 21.11° C 75% 1023.3 hPa 0 mm - - -

* Rain latest hour (hover to see other rain measurements)
** Current wind speed in m/s (hover to see current wind gust speed)